FW5164 Weather Reports


Display with metric or nautical units.
time (UTC)temp
F
wind
direction
speed
MPH
gust
MPH
rain 1hr
in
rain 24hr
in
rain mn
in
humidity
%
barometer
mb
20260509123549 71 0 1.0 3.0 0.00 0.00 0.00 94 1010.8
20260509123052 71 262 0.0 9.0 0.00 0.00 0.00 94 1010.8
20260509123049 71 355 3.0 6.0 0.00 0.00 0.00 91 1011.6
20260509122549 71 262 3.0 9.0 0.00 0.00 0.00 94 1011.0
20260509122049 71 226 4.0 10.0 0.00 0.00 0.00 94 1011.0
20260509121554 71 241 4.0 10.0 0.00 0.00 0.00 94 1011.0
20260509121551 71 302 2.0 7.0 0.00 0.00 0.00 91 1011.4
20260509121049 71 214 6.0 13.0 0.00 0.00 0.00 94 1011.0
20260509120551 71 198 6.0 14.0 0.00 0.00 0.00 94 1010.8
20260509120059 71 180 7.0 14.0 0.00 0.00 0.00 94 1010.8
20260509120055 71 269 2.0 7.0 0.00 0.00 0.00 91 1010.2
20260509115549 71 158 6.0 12.0 0.00 0.00 0.00 94 1010.2
20260509115049 71 167 6.0 17.0 0.00 0.00 0.00 94 1010.0
20260509114552 71 154 9.0 17.0 0.00 0.00 0.00 94 1009.9
20260509114549 71 211 4.0 7.0 0.00 0.00 0.00 91 1010.0
20260509114049 71 167 9.0 16.0 0.00 0.00 0.00 94 1009.8
20260509113548 71 157 8.0 16.0 0.00 0.00 0.00 94 1009.7
20260509113053 71 336 3.0 12.0 0.00 0.00 0.00 91 1010.4
20260509112550 71 154 6.0 15.0 0.00 0.00 0.00 94 1009.6
20260509112049 70 172 8.0 16.0 0.00 0.00 0.00 94 1009.6
20260509111553 71 250 4.0 14.0 0.00 0.00 0.00 90 1009.5
20260509111551 70 144 6.0 16.0 0.00 0.00 0.00 94 1009.6
20260509111049 70 158 5.0 17.0 0.00 0.00 0.00 94 1009.6
20260509110549 70 145 9.0 20.0 0.00 0.00 0.00 94 1009.3
20260509110053 71 226 7.0 15.0 0.00 0.00 0.00 90 1009.2
20260509105548 70 136 12.0 24.0 0.00 0.00 0.00 94 1008.9
20260509105049 70 133 12.0 24.0 0.00 0.00 0.00 94 1009.0
20260509104605 71 113 12.0 20.0 0.00 0.00 0.00 94 1008.9
20260509104553 71 230 4.0 12.0 0.00 0.00 0.00 90 1009.4
20260509104045 71 158 8.0 19.0 0.00 0.00 0.00 94 1009.4
20260509103549 70 144 9.0 19.0 0.00 0.00 0.00 94 1009.3
20260509103107 70 111 12.0 21.0 0.00 0.00 0.00 94 1009.4
20260509103048 71 230 8.0 14.0 0.00 0.00 0.00 90 1009.0
20260509102549 70 130 10.0 21.0 0.00 0.00 0.00 94 1009.3
20260509102049 70 131 10.0 20.0 0.00 0.00 0.00 94 1009.4
20260509101556 70 111 10.0 18.0 0.00 0.00 0.00 94 1009.4
20260509101550 70 241 6.0 10.0 0.00 0.00 0.00 89 1009.6
20260509101049 70 133 10.0 16.0 0.00 0.00 0.00 94 1009.3
20260509100549 70 141 10.0 17.0 0.00 0.00 0.00 94 1009.2
20260509100057 70 234 4.0 7.0 0.00 0.00 0.00 89 1010.1
20260509100051 69 132 11.0 17.0 0.00 0.00 0.00 93 1009.1
20260509095549 69 136 12.0 17.0 0.00 0.00 0.00 93 1009.2
20260509095048 69 88 9.0 13.0 0.00 0.00 0.00 92 1009.7
20260509094554 69 96 3.0 6.0 0.00 0.00 0.00 92 1010.4
20260509094049 69 149 2.0 5.0 0.00 0.00 0.00 92 1010.7
20260509093550 70 153 1.0 4.0 0.00 0.00 0.00 92 1010.6
20260509093051 70 149 1.0 5.0 0.00 0.00 0.00 92 1010.7
20260509093049 71 0 1.0 4.0 0.00 0.00 0.00 88 1010.7
20260509092551 70 149 2.0 5.0 0.00 0.00 0.00 92 1010.6
20260509092049 70 150 2.0 5.0 0.00 0.00 0.00 91 1011.1
20260509091555 70 146 2.0 4.0 0.00 0.00 0.00 91 1011.0
20260509091552 71 259 1.0 4.0 0.00 0.00 0.00 88 1011.0
20260509091049 70 148 2.0 4.0 0.00 0.00 0.00 91 1011.1
20260509090549 70 142 2.0 4.0 0.00 0.00 0.00 91 1011.1
20260509090057 71 232 0.0 3.0 0.00 0.00 0.00 88 1011.3
20260509085549 70 142 1.0 4.0 0.00 0.00 0.00 90 1011.4
20260509085046 70 141 2.0 5.0 0.00 0.00 0.00 90 1011.4
20260509084559 71 0 0.0 4.0 0.00 0.00 0.00 88 1011.4
20260509084047 70 140 2.0 4.0 0.00 0.00 0.00 90 1011.4
20260509083548 70 140 2.0 4.0 0.00 0.00 0.00 89 1011.4
20260509083054 70 140 1.0 3.0 0.00 0.00 0.00 89 1011.6
20260509083051 71 231 2.0 5.0 0.00 0.00 0.00 87 1011.4
20260509082545 70 140 0.0 2.0 0.00 0.00 0.00 89 1011.5
20260509082047 70 0 0.0 4.0 0.00 0.00 0.00 89 1011.6
20260509081556 70 140 1.0 7.0 0.00 0.00 0.00 89 1011.7
20260509081049 70 140 3.0 7.0 0.00 0.00 0.00 88 1011.4
20260509080545 70 137 4.0 7.0 0.00 0.00 0.00 88 1011.4
20260509080056 71 229 0.0 2.0 0.00 0.00 0.00 87 1011.8
20260509080054 71 97 2.0 4.0 0.00 0.00 0.00 88 1011.7
20260509075550 71 96 1.0 3.0 0.00 0.00 0.00 88 1012.1
20260509075049 71 79 1.0 2.0 0.00 0.00 0.00 88 1012.0
20260509074602 71 229 0.0 4.0 0.00 0.00 0.00 87 1011.9
20260509074558 71 79 0.0 1.0 0.00 0.00 0.00 88 1011.9
20260509074049 71 0 0.0 1.0 0.00 0.00 0.00 88 1012.0
20260509073549 71 0 0.0 2.0 0.00 0.00 0.00 88 1012.0
20260509073058 71 228 2.0 5.0 0.00 0.00 0.00 87 1012.0
20260509073052 71 0 0.0 2.0 0.00 0.00 0.00 88 1012.1
20260509072551 71 79 0.0 2.0 0.00 0.00 0.00 88 1012.1
20260509072048 71 79 0.0 2.0 0.00 0.00 0.00 88 1012.2
20260509071608 71 0 2.0 3.0 0.00 0.00 0.00 87 1011.9
20260509071555 71 79 1.0 2.0 0.00 0.00 0.00 88 1012.0
20260509071049 71 79 1.0 2.0 0.00 0.00 0.00 88 1011.9
20260509070552 71 0 0.0 2.0 0.00 0.00 0.00 88 1011.7
20260509070059 71 79 0.0 2.0 0.00 0.00 0.00 88 1011.7
20260509070051 71 174 1.0 3.0 0.00 0.00 0.00 87 1011.7
20260509065548 71 79 0.0 2.0 0.00 0.00 0.00 88 1011.6
20260509065048 71 79 0.0 2.0 0.00 0.00 0.00 88 1011.4
20260509064553 71 184 2.0 5.0 0.00 0.00 0.00 87 1011.2
20260509064551 71 0 0.0 1.0 0.00 0.00 0.00 88 1011.3
20260509064053 71 0 0.0 2.0 0.00 0.00 0.00 88 1011.4
20260509063549 71 0 0.0 4.0 0.00 0.00 0.00 88 1011.3
20260509063107 71 0 1.0 6.0 0.00 0.00 0.00 88 1011.1
20260509063052 71 170 0.0 6.0 0.00 0.00 0.00 87 1011.1
20260509062549 71 79 2.0 8.0 0.00 0.00 0.00 88 1010.9
20260509062049 71 83 3.0 8.0 0.00 0.00 0.00 87 1010.9
20260509061613 71 71 4.0 8.0 0.00 0.00 0.00 87 1011.0
20260509061558 71 198 2.0 4.0 0.00 0.00 0.00 87 1011.3
20260509061049 71 63 3.0 4.0 0.00 0.00 0.00 87 1011.3
20260509060551 71 22 2.0 3.0 0.00 0.00 0.00 87 1011.5
20260509060104 71 204 1.0 3.0 0.00 0.00 0.00 87 1011.7
20260509060058 71 352 1.0 5.0 0.00 0.00 0.00 87 1011.6
20260509055549 71 349 1.0 5.0 0.00 0.00 0.00 88 1011.6
20260509055048 71 338 3.0 5.0 0.00 0.00 0.00 88 1011.5
20260509054607 71 207 0.0 3.0 0.00 0.00 0.00 87 1011.8
20260509054555 71 332 2.0 6.0 0.00 0.00 0.00 88 1011.7
20260509054048 71 329 3.0 6.0 0.00 0.00 0.00 87 1011.7
20260509053550 71 325 3.0 6.0 0.00 0.00 0.00 87 1011.7
20260509053055 71 333 3.0 6.0 0.00 0.00 0.00 87 1011.6
20260509052549 71 344 3.0 4.0 0.00 0.00 0.00 87 1011.5
20260509052048 71 342 2.0 3.0 0.00 0.00 0.00 87 1011.4
20260509051556 71 338 1.0 3.0 0.00 0.00 0.00 87 1011.5
20260509051049 71 338 0.0 3.0 0.00 0.00 0.00 87 1011.4
20260509050549 71 338 1.0 5.0 0.00 0.00 0.00 87 1011.3
20260509050059 71 219 1.0 2.0 0.00 0.00 0.00 86 1011.8
20260509050054 71 337 2.0 5.0 0.00 0.00 0.00 87 1011.4
20260509045549 71 331 3.0 5.0 0.00 0.00 0.00 86 1011.3
20260509045049 71 10 2.0 3.0 0.00 0.00 0.00 86 1011.2
20260509044554 71 113 0.0 6.0 0.00 0.00 0.00 86 1011.3
20260509044052 71 113 2.0 6.0 0.00 0.00 0.00 86 1011.0
20260509043546 71 114 3.0 6.0 0.00 0.00 0.00 86 1011.0
20260509043051 71 131 2.0 5.0 0.00 0.00 0.00 86 1011.1
20260509043049 71 0 0.0 2.0 0.00 0.00 0.00 86 1011.2
20260509042549 71 132 2.0 5.0 0.00 0.00 0.00 86 1010.9
20260509042049 71 177 2.0 3.0 0.00 0.00 0.00 86 1011.0
20260509041555 71 219 1.0 4.0 0.00 0.00 0.00 86 1011.0
20260509041552 71 187 0.0 0.0 0.00 0.00 0.00 86 1011.1
20260509041050 71 0 0.0 0.0 0.00 0.00 0.00 86 1011.1
20260509040547 71 0 0.0 0.0 0.00 0.00 0.00 86 1011.3
20260509040054 71 227 0.0 3.0 0.00 0.00 0.00 86 1011.1
20260509035550 71 0 0.0 1.0 0.00 0.00 0.00 85 1011.2
20260509035049 71 0 0.0 1.0 0.00 0.00 0.00 86 1011.2
20260509034601 71 0 0.0 0.0 0.00 0.00 0.00 86 1011.3
20260509034553 71 0 0.0 1.0 0.00 0.00 0.00 86 1011.0
20260509034050 71 0 0.0 2.0 0.00 0.00 0.00 86 1011.0
20260509033549 71 0 0.0 3.0 0.00 0.00 0.00 86 1011.0
20260509033053 71 279 1.0 3.0 0.00 0.00 0.00 86 1010.9
20260509032549 71 279 1.0 3.0 0.00 0.00 0.00 85 1010.8
20260509032046 71 278 2.0 4.0 0.00 0.00 0.00 86 1010.7
20260509031602 71 227 1.0 2.0 0.00 0.00 0.00 86 1010.9
20260509031553 71 244 2.0 4.0 0.00 0.00 0.00 86 1010.6
20260509031050 71 132 2.0 3.0 0.00 0.00 0.00 86 1010.7
20260509030546 71 132 1.0 3.0 0.00 0.00 0.00 85 1010.5
20260509030057 71 132 1.0 2.0 0.00 0.00 0.00 85 1010.5
20260509030055 71 0 0.0 2.0 0.00 0.00 0.00 86 1010.5
20260509025545 71 132 1.0 2.0 0.00 0.00 0.00 85 1010.2
20260509025046 71 131 0.0 2.0 0.00 0.00 0.00 85 1010.1
20260509024556 71 0 0.0 2.0 0.00 0.00 0.00 85 1010.1
20260509024554 71 0 0.0 1.0 0.00 0.00 0.00 85 1010.3
20260509024049 71 132 1.0 2.0 0.00 0.00 0.00 85 1010.1
20260509023550 71 131 1.0 2.0 0.00 0.00 0.00 84 1010.0
20260509023059 71 227 1.0 2.0 0.00 0.00 0.00 84 1010.2
20260509023054 72 131 0.0 2.0 0.00 0.00 0.00 84 1009.9
20260509022549 72 131 0.0 2.0 0.00 0.00 0.00 83 1009.9
20260509022050 72 0 1.0 2.0 0.00 0.00 0.00 83 1009.9
20260509021605 71 0 0.0 0.0 0.00 0.00 0.00 83 1009.9
20260509021553 73 131 1.0 2.0 0.00 0.00 0.00 83 1009.7
20260509021049 73 131 0.0 2.0 0.00 0.00 0.00 83 1009.6
20260509020545 73 0 0.0 2.0 0.00 0.00 0.00 82 1009.8
20260509020056 73 0 0.0 2.0 0.00 0.00 0.00 82 1009.7
20260509020053 72 0 0.0 0.0 0.00 0.00 0.00 82 1009.7
20260509015546 73 131 1.0 4.0 0.00 0.00 0.00 82 1009.6
20260509015047 73 131 1.0 4.0 0.00 0.00 0.00 81 1009.5
20260509014553 73 131 2.0 4.0 0.00 0.00 0.00 81 1009.6
20260509014550 73 0 0.0 1.0 0.00 0.00 0.00 81 1009.7
20260509014047 73 132 2.0 4.0 0.00 0.00 0.00 81 1009.5
20260509013545 73 134 1.0 4.0 0.00 0.00 0.00 81 1009.3
20260509013109 73 227 0.0 3.0 0.00 0.00 0.00 81 1009.5
20260509013058 73 134 2.0 4.0 0.00 0.00 0.00 81 1009.5
20260509012549 73 131 2.0 7.0 0.00 0.00 0.00 81 1009.4
20260509012049 73 134 2.0 9.0 0.00 0.00 0.00 81 1009.3
20260509011557 73 136 3.0 9.0 0.00 0.00 0.00 80 1009.4
20260509011549 74 0 0.0 3.0 0.00 0.00 0.00 80 1009.4
20260509011049 74 111 4.0 9.0 0.00 0.00 0.00 80 1009.3
20260509010549 74 123 5.0 10.0 0.00 0.00 0.00 79 1009.3
20260509010054 74 118 5.0 10.0 0.00 0.00 0.00 79 1009.2
20260509010050 74 227 1.0 6.0 0.00 0.00 0.00 79 1009.3
20260509005549 74 110 4.0 8.0 0.00 0.00 0.00 79 1009.1
20260509005048 74 107 4.0 7.0 0.00 0.00 0.00 79 1009.2
20260509004602 74 107 3.0 9.0 0.00 0.00 0.00 78 1009.1
20260509004548 75 230 1.0 11.0 0.00 0.00 0.00 78 1009.3
20260509004049 75 109 3.0 9.0 0.00 0.00 0.00 78 1009.1
20260509003548 75 128 4.0 12.0 0.00 0.00 0.00 78 1009.0
20260509003053 75 114 2.0 12.0 0.00 0.00 0.00 78 1009.0
20260509003047 75 213 5.0 15.0 0.00 0.00 0.00 78 1009.1
20260509002548 75 111 7.0 12.0 0.00 0.00 0.00 78 1009.0
20260509002051 75 121 7.0 15.0 0.00 0.00 0.00 78 1008.8
20260509001554 75 146 8.0 16.0 0.00 0.00 0.00 77 1008.8
20260509001550 75 213 6.0 13.0 0.00 0.00 0.00 77 1009.0
20260509001048 75 123 11.0 16.0 0.00 0.00 0.00 76 1008.9
20260509000548 76 119 10.0 16.0 0.00 0.00 0.00 76 1009.0
20260509000054 76 228 6.0 13.0 0.00 0.00 0.00 77 1009.0
20260508235549 76 92 11.0 16.0 0.00 0.00 0.00 76 1009.0
20260508235048 77 96 9.0 13.0 0.00 0.00 0.00 75 1009.0
20260508234554 77 132 7.0 12.0 0.00 0.00 0.00 75 1008.9
20260508234550 76 225 4.0 9.0 0.00 0.00 0.00 77 1009.2
20260508234049 77 78 9.0 12.0 0.00 0.00 0.00 75 1009.0
20260508233549 77 75 8.0 14.0 0.00 0.00 0.00 74 1009.1
20260508233054 77 98 6.0 14.0 0.00 0.00 0.00 74 1009.1
20260508233048 76 183 4.0 12.0 0.00 0.00 0.00 77 1009.4
20260508232548 77 69 9.0 14.0 0.00 0.00 0.00 73 1009.0
20260508232048 78 115 8.0 12.0 0.00 0.00 0.00 73 1008.8
20260508231600 78 96 4.0 12.0 0.00 0.00 0.00 73 1008.8
20260508231554 76 202 4.0 11.0 0.00 0.00 0.00 76 1009.1
20260508231050 77 74 7.0 12.0 0.00 0.00 0.00 74 1008.8
20260508230548 78 97 6.0 11.0 0.00 0.00 0.00 73 1008.9
20260508230059 77 62 6.0 11.0 0.00 0.00 0.00 72 1008.9
20260508225548 78 91 4.0 11.0 0.00 0.00 0.00 73 1009.0
20260508225048 77 88 5.0 11.0 0.00 0.00 0.00 74 1009.1
20260508224606 75 141 2.0 7.0 0.00 0.00 0.00 77 1009.8
20260508224550 76 76 6.0 11.0 0.00 0.00 0.00 74 1009.2
20260508224048 76 65 4.0 9.0 0.00 0.00 0.00 74 1009.5
20260508223549 76 56 3.0 9.0 0.00 0.00 0.00 74 1009.5
20260508223051 76 57 3.0 6.0 0.00 0.00 0.00 75 1009.7
20260508222548 75 36 3.0 7.0 0.00 0.00 0.00 75 1009.7
20260508222048 75 360 4.0 7.0 0.00 0.00 0.00 76 1009.8
20260508221557 75 27 4.0 7.0 0.00 0.00 0.00 75 1009.8
20260508221049 74 53 2.0 5.0 0.00 0.00 0.00 76 1009.8
20260508220548 73 360 1.0 5.0 0.00 0.00 0.00 78 1010.0
20260508220055 74 80 3.0 4.0 0.00 0.00 0.00 75 1010.5
20260508215548 72 350 3.0 8.0 0.00 0.00 0.00 79 1010.2
20260508215048 72 290 3.0 8.0 0.00 0.00 0.00 79 1010.4
20260508214555 73 74 1.0 4.0 0.00 0.00 0.00 76 1010.7
20260508214048 72 304 5.0 9.0 0.00 0.00 0.00 78 1010.4
20260508213549 72 331 4.0 6.0 0.00 0.00 0.00 78 1010.5
20260508213112 73 71 1.0 4.0 0.00 0.00 0.00 76 1010.9
20260508213054 72 315 3.0 5.0 0.00 0.00 0.00 78 1010.5
20260508212548 72 331 3.0 5.0 0.00 0.00 0.00 78 1010.5
20260508212048 72 350 3.0 5.0 0.00 0.00 0.00 78 1010.7
20260508211554 72 360 2.0 6.0 0.00 0.00 0.00 78 1010.7
20260508211552 73 0 0.0 3.0 0.00 0.00 0.00 77 1011.0
20260508211049 72 350 2.0 6.0 0.00 0.00 0.00 78 1010.8
20260508210551 72 344 2.0 7.0 0.00 0.00 0.00 77 1010.8
20260508210055 72 345 3.0 8.0 0.00 0.00 0.00 77 1010.9
20260508205548 72 292 4.0 8.0 0.00 0.00 0.00 77 1010.9
20260508205048 72 295 3.0 7.0 0.00 0.00 0.00 78 1011.0
20260508204556 72 255 3.0 7.0 0.00 0.00 0.00 76 1011.2
20260508204553 73 0 1.0 3.0 0.00 0.00 0.00 75 1011.4
20260508204049 73 44 0.0 4.0 0.00 0.00 0.00 75 1011.4
20260508203548 73 65 2.0 4.0 0.00 0.00 0.00 73 1011.3
20260508203109 73 259 1.0 3.0 0.00 0.00 0.00 76 1011.5
20260508203100 73 54 1.0 4.0 0.00 0.00 0.00 74 1011.3
20260508202548 73 57 1.0 4.0 0.00 0.00 0.00 74 1011.4
20260508202049 73 37 2.0 4.0 0.00 0.00 0.00 74 1011.2
20260508201600 72 343 2.0 5.0 0.00 0.00 0.00 75 1011.4
20260508201553 72 0 0.0 4.0 0.00 0.00 0.00 77 1011.5
20260508201048 73 352 2.0 5.0 0.00 0.00 0.00 74 1011.4
20260508200548 73 49 2.0 6.0 0.00 0.00 0.00 74 1011.5
20260508200055 72 259 3.0 6.0 0.00 0.00 0.00 76 1011.5
20260508200051 73 38 2.0 6.0 0.00 0.00 0.00 75 1011.5
20260508195547 73 72 3.0 6.0 0.00 0.00 0.00 75 1011.7
20260508195052 73 37 3.0 8.0 0.00 0.00 0.00 74 1011.6
20260508194555 71 0 2.0 6.0 0.00 0.00 0.00 77 1011.6
20260508194548 73 45 3.0 8.0 0.00 0.00 0.00 74 1011.5
20260508194048 74 44 2.0 8.0 0.00 0.00 0.00 73 1011.5
20260508193548 73 69 3.0 8.0 0.00 0.00 0.00 73 1011.5
20260508193126 71 261 2.0 4.0 0.00 0.00 0.00 77 1011.9
20260508193054 73 49 1.0 4.0 0.00 0.00 0.00 74 1011.6
20260508192552 72 30 2.0 4.0 0.00 0.00 0.00 74 1011.7
20260508192049 72 52 0.0 3.0 0.00 0.00 0.00 73 1012.0
20260508191553 71 72 1.0 3.0 0.00 0.00 0.00 75 1012.1
20260508191551 72 259 2.0 8.0 0.00 0.00 0.00 75 1012.1
20260508191048 71 103 1.0 3.0 0.00 0.00 0.00 75 1012.1
20260508190548 71 194 1.0 4.0 0.00 0.00 0.00 73 1012.4
20260508190054 71 234 3.0 6.0 0.00 0.00 0.00 76 1012.3
20260508190050 71 159 1.0 5.0 0.00 0.00 0.00 74 1012.4
20260508185552 71 0 1.0 6.0 0.00 0.00 0.00 76 1012.5
20260508185048 70 123 2.0 6.0 0.00 0.00 0.00 76 1012.5
20260508184622 71 241 2.0 7.0 0.00 0.00 0.00 76 1012.4
20260508184554 69 46 1.0 4.0 0.00 0.00 0.00 78 1012.4
20260508184050 68 77 1.0 4.0 0.00 0.00 0.00 77 1012.6
20260508183548 68 0 1.0 4.0 0.00 0.00 0.00 77 1013.0
20260508183052 68 118 1.0 6.0 0.00 0.00 0.00 78 1012.9
20260508183048 70 194 2.0 6.0 0.00 0.00 0.00 78 1013.0
20260508182549 68 116 2.0 6.0 0.00 0.00 0.00 80 1013.0
20260508182048 67 78 1.0 4.0 0.00 0.00 0.00 80 1012.8
20260508181558 67 63 2.0 7.0 0.00 0.00 0.00 79 1012.9
20260508181549 69 257 3.0 7.0 0.00 0.00 0.00 78 1013.2
20260508181048 67 129 1.0 7.0 0.00 0.00 0.00 78 1013.3
20260508180550 68 122 4.0 7.0 0.00 0.00 0.00 78 1013.3
20260508180100 69 252 2.0 8.0 0.00 0.00 0.00 77 1013.7
20260508180053 68 70 3.0 7.0 0.00 0.00 0.00 77 1013.4
20260508175548 68 115 3.0 8.0 0.00 0.00 0.00 77 1013.5
20260508175048 68 107 1.0 9.0 0.00 0.00 0.00 76 1013.6
20260508174608 68 77 4.0 10.0 0.00 0.00 0.00 75 1013.7
20260508174052 68 126 6.0 10.0 0.00 0.00 0.00 74 1013.7
20260508173548 68 83 4.0 12.0 0.00 0.00 0.00 74 1013.7
20260508173104 69 164 3.0 8.0 0.00 0.00 0.00 76 1014.0
20260508173051 69 96 7.0 12.0 0.00 0.00 0.00 74 1013.7
20260508172549 69 63 6.0 12.0 0.00 0.00 0.00 73 1013.6
20260508172049 68 36 4.0 9.0 0.00 0.00 0.00 75 1013.5
20260508171618 68 98 4.0 8.0 0.00 0.00 0.00 76 1014.0
20260508171552 68 45 4.0 10.0 0.00 0.00 0.00 74 1013.7
20260508171048 68 82 5.0 10.0 0.00 0.00 0.00 75 1013.7
20260508170548 67 62 5.0 10.0 0.00 0.00 0.00 75 1013.8
20260508170054 67 5 4.0 8.0 0.00 0.00 0.00 75 1013.8
20260508170047 68 141 2.0 6.0 0.00 0.00 0.00 77 1014.4
20260508165548 67 31 4.0 10.0 0.00 0.00 0.00 75 1014.0
20260508165048 67 25 4.0 10.0 0.00 0.00 0.00 76 1014.1
20260508164551 67 175 4.0 8.0 0.00 0.00 0.00 76 1014.7
20260508164549 67 19 3.0 8.0 0.00 0.00 0.00 77 1014.2
20260508164048 66 58 2.0 6.0 0.00 0.00 0.00 79 1014.1
20260508163548 66 41 3.0 8.0 0.00 0.00 0.00 79 1014.3
20260508163057 67 177 4.0 8.0 0.00 0.00 0.00 77 1014.8
20260508163053 65 43 3.0 9.0 0.00 0.00 0.00 79 1014.5
20260508162548 65 69 4.0 10.0 0.00 0.00 0.00 79 1014.6
20260508162048 65 18 5.0 10.0 0.00 0.00 0.00 79 1014.6
20260508161600 67 165 3.0 8.0 0.00 0.00 0.00 78 1015.0
20260508161552 65 32 7.0 10.0 0.00 0.00 0.00 79 1014.6
20260508161048 65 13 5.0 10.0 0.00 0.00 0.00 80 1014.5
20260508160551 65 9 5.0 8.0 0.00 0.00 0.00 80 1014.7
20260508160056 66 136 3.0 8.0 0.00 0.00 0.00 78 1015.3
20260508160049 65 16 4.0 8.0 0.00 0.00 0.00 80 1014.8
20260508155547 65 5 4.0 8.0 0.00 0.00 0.00 79 1014.8
20260508155050 65 360 4.0 8.0 0.00 0.00 0.00 79 1014.8
20260508154557 65 360 3.0 8.0 0.00 0.00 0.00 80 1014.7
20260508154549 66 128 2.0 7.0 0.00 0.00 0.00 80 1015.2
20260508154048 64 9 4.0 8.0 0.00 0.00 0.00 80 1014.7
20260508153549 64 333 4.0 8.0 0.00 0.00 0.00 80 1014.7
20260508153052 64 336 3.0 8.0 0.00 0.00 0.00 80 1014.9
20260508152548 64 5 3.0 6.0 0.00 0.00 0.00 80 1014.9
20260508152048 64 21 3.0 6.0 0.00 0.00 0.00 80 1014.9
20260508151556 65 119 3.0 5.0 0.00 0.00 0.00 80 1015.2
20260508151554 64 33 4.0 7.0 0.00 0.00 0.00 81 1015.0
20260508151050 63 13 4.0 7.0 0.00 0.00 0.00 81 1015.0
20260508150549 63 31 2.0 5.0 0.00 0.00 0.00 82 1015.0
20260508150053 63 34 2.0 4.0 0.00 0.00 0.00 81 1015.0
20260508150051 65 0 1.0 7.0 0.00 0.00 0.00 79 1015.6
20260508145549 63 355 2.0 5.0 0.00 0.00 0.00 81 1015.1
20260508145049 63 352 2.0 5.0 0.00 0.00 0.00 81 1014.9
20260508144551 65 143 2.0 6.0 0.00 0.00 0.00 79 1015.1
20260508144049 62 293 2.0 3.0 0.00 0.00 0.00 81 1014.8
20260508143549 62 0 1.0 4.0 0.00 0.00 0.00 81 1014.9
20260508143113 62 306 1.0 5.0 0.00 0.00 0.00 81 1015.0
20260508143053 65 107 1.0 4.0 0.00 0.00 0.00 80 1015.2
20260508142551 62 309 2.0 5.0 0.00 0.00 0.00 82 1014.9
20260508142051 62 317 3.0 5.0 0.00 0.00 0.00 82 1014.9
20260508141614 62 317 2.0 5.0 0.00 0.00 0.00 81 1014.7
20260508141552 65 108 3.0 6.0 0.00 0.00 0.00 81 1015.1
20260508141050 62 332 2.0 5.0 0.00 0.00 0.00 81 1015.0
20260508140551 62 309 2.0 5.0 0.00 0.00 0.00 83 1015.0
20260508140056 63 219 2.0 4.0 0.00 0.00 0.00 84 1015.3
20260508140054 61 323 2.0 4.0 0.00 0.00 0.00 83 1015.1
20260508135550 61 312 2.0 4.0 0.00 0.00 0.00 84 1015.1
20260508135050 61 355 3.0 4.0 0.00 0.00 0.00 84 1015.1
20260508134608 61 355 2.0 4.0 0.00 0.00 0.00 84 1015.1
20260508134605 62 244 0.0 3.0 0.00 0.00 0.00 88 1015.3
20260508134050 61 346 2.0 4.0 0.00 0.00 0.00 85 1015.1
20260508133550 61 327 2.0 4.0 0.00 0.00 0.00 85 1015.2
20260508133104 61 0 1.0 3.0 0.00 0.00 0.00 89 1015.2
20260508133100 61 319 2.0 5.0 0.00 0.00 0.00 85 1015.1
20260508132550 60 347 3.0 5.0 0.00 0.00 0.00 86 1015.2
20260508132051 60 335 3.0 5.0 0.00 0.00 0.00 86 1015.1
20260508131552 60 244 1.0 4.0 0.00 0.00 0.00 90 1015.3
20260508131549 60 352 2.0 4.0 0.00 0.00 0.00 87 1015.1
20260508131050 60 307 1.0 4.0 0.00 0.00 0.00 87 1015.2
20260508130550 60 307 2.0 4.0 0.00 0.00 0.00 87 1015.1
20260508130056 59 241 1.0 3.0 0.00 0.00 0.00 90 1015.6
20260508130053 59 292 2.0 4.0 0.00 0.00 0.00 87 1015.1
20260508125550 59 290 1.0 6.0 0.00 0.00 0.00 88 1015.3
20260508125050 59 290 3.0 8.0 0.00 0.00 0.00 88 1015.3
20260508124601 58 268 4.0 8.0 0.00 0.00 0.00 89 1015.1
20260508124550 59 234 1.0 3.0 0.00 0.00 0.00 91 1015.7
20260508124050 58 287 3.0 7.0 0.00 0.00 0.00 89 1015.1